星链-34045 (STARLINK-34045)

导读

STARLINK-34045是由美国发射的星链卫星,于2025年5月13日发射入轨,隶属于SpaceX公司的星链星座项目。星链旨在构建全球卫星互联网星座,为全球提供高速低延迟的宽带网络服务,覆盖偏远地区和全球网络覆盖薄弱区域,该卫星是星链大规模组网进程中的组成部分,助力星座完善全球覆盖能力。

Basic Information
目录编号:
63979
目录名称:
STARLINK-34045
国际标识:
2025-099AD
轨道中心:
EARTH
卫星名称:
星链-34045
卫星全名:
星链-34045 (STARLINK-34045)
卫星状态:
在轨 (已飞行480 天)
发射日期:
2025-05-13 UTC
国别 :
美国 (US)
星等 :
--
Orbit Information
数据来源 国际轨道数据
星历时间: 2026-09-05T08:27:00+0800
11小时前
查看轨道信息
半长轴: 6861.178km
偏心率: 0.0000825
轨道倾角: 43.000°
近地点辐角 261.682°
升交点赤经 239.875°
平近点角 98.394°
近地点: 482.474km
远地点: 483.608km
周期: 94.267分钟
每日圈数: 15.275829
Detailed Information
固有亮度:
5
最大亮度:
2.5
卫星平台:
Starlink V1.0
覆盖范围:
全球
运营商:
太空探索技术公司
运营商所在国:
美国
制造商(研发单位):
太空探索技术公司
制造商所在国:
美国
使用方式:
暂无
Satellite Introduction
Starlink 计划是 SpaceX 推出的全球卫星互联网项目,通过发射低轨道卫星,为全球尤其是偏远地区提供高速、低延迟的互联网服务。自 2019 年起,Starlink 已部署数千颗卫星,旨在缩小全球数字鸿沟,推动互联网普及。该项目还为军事、航空等行业提供通信支持,带来广泛经济效益。
2D Orbit Map
3D Orbit Map
Orbit Altitude Analysis Chart
Orbit Inclination Analysis Chart
Orbit Comprehensive Analysis Chart
View Comprehensive Chart
Conjunction Data List
Event ID Objects TCA Miss Dist (km) Collision Risk Probability Collision Risk Index (CRI) Action
CDM_260907-163105-737706-397921
2026-09-07T
16:31:06+0000
1.011 km
极远距离
1.408959E-5 中风险 0.58
CDM_260907-061905-737706-397921
2026-09-07T
06:19:06+0000
1.135 km
极远距离
9.468767E-6 低风险 0.55
CDM_260907-075305-737706-397921
2026-09-07T
07:53:15+0000
1.300 km
极远距离
5.949507E-6 低风险 0.5
CDM_260905-153806-397906-767721
2026-09-05T
15:38:52+0000
2.161 km
极远距离
1.816666E-6 低风险 0.4
CDM_260907-145605-737706-397921
2026-09-07T
14:56:56+0000
2.279 km
极远距离
1.247372E-6 低风险 0.37